Flag for Cambodia Weather past 2 weeks in Battambang, Cambodia

Now
81 °F

Passing clouds.


Feels Like: 85 °F
Forecast: 76 / 96 °F
Wind: 2 mph from Northeast

Location: Siemreap

Current Time: Mar 2, 2015 at 2:57:54 AM

Latest Report: Mar 2, 2015 at 1:00 AM


Visibility: 5 mi

Pressure: 29.80 "Hg

Humidity: 74%

Dew point: 72 °F

Location of BattambangLocation

Historic Weather in Battambang — Graph

°F

Battambang temperature yesterday

Maximum temperature yesterday: 95 °F (at 2:00 PM)
Minimum temperature yesterday: 79 °F (at 7:30 AM)
Average temperature yesterday: 88 °F

Past Weeks' High & Low Weather Summary

 TemperatureHumidityPressure
High95 °F (Feb 23, 4:00 PM)100% (Feb 28, 7:00 AM)29.95 "Hg (Feb 28, 7:00 AM)
Low73 °F (Feb 15, 7:00 AM)39% (Feb 22, 4:00 PM)29.68 "Hg (Feb 25, 4:30 PM)
Average85 °F67%29.82 "Hg
* Reported Feb 15 1:00 AM — Mar 2 1:00 AM, Battambang, Weather by CustomWeather, © 2015

Note: Actual official high and low records may vary slightly from our data, if they occured in-between our weather recording intervals... More about our weather records

Advertising

Battambang weather history for previous 24 hours

 ConditionsComfort  
Time TempWeatherWind HumidityBarometerVisibility
1:00 AM
Mon, Mar 2
81 °FPassing clouds.2 mph74%29.80 "Hg5 mi
12:30 AM81 °FPassing clouds.3 mph74%29.83 "Hg5 mi
12:00 AM81 °FPassing clouds.2 mph74%29.83 "Hg5 mi
11:30 PM
Sun, Mar 1
81 °FPassing clouds.2 mph84%29.83 "Hg5 mi
11:00 PM82 °FPassing clouds.1 mph74%29.83 "Hg6 mi
10:30 PM82 °FPassing clouds.2 mph74%29.83 "Hg6 mi
10:00 PM82 °FPassing clouds.2 mph70%29.83 "Hg6 mi
9:30 PM82 °FPassing clouds.2 mph70%29.83 "Hg6 mi
9:00 PM84 °FPassing clouds.1 mph66%29.83 "Hg6 mi
5:30 PM91 °FScattered clouds.14 mph59%29.74 "Hg6 mi
5:00 PM93 °FScattered clouds.9 mph56%29.74 "Hg6 mi
4:30 PM95 °FScattered clouds.9 mph47%29.74 "Hg6 mi
4:00 PM95 °FScattered clouds.9 mph47%29.74 "Hg6 mi
3:30 PM95 °FScattered clouds.9 mph47%29.74 "Hg6 mi
3:00 PM95 °FScattered clouds.7 mph47%29.74 "Hg6 mi
2:30 PM95 °FScattered clouds.7 mph47%29.77 "Hg6 mi
2:00 PM95 °FScattered clouds.6 mph47%29.77 "Hg6 mi
1:30 PM93 °FScattered clouds.6 mph53%29.80 "Hg6 mi
1:00 PM93 °FScattered clouds.6 mph53%29.80 "Hg6 mi
12:30 PM90 °FScattered clouds.6 mph59%29.83 "Hg6 mi
12:00 PM90 °FScattered clouds.6 mph59%29.86 "Hg6 mi
11:30 AM90 °FScattered clouds.5 mph59%29.89 "Hg6 mi
11:00 AM90 °FScattered clouds.5 mph59%29.89 "Hg6 mi
10:30 AM90 °FScattered clouds.5 mph59%29.92 "Hg6 mi
10:00 AM88 °FSunny.2 mph62%29.92 "Hg10 mi
9:30 AM86 °FClear.2 mph66%29.92 "Hg6 mi
9:00 AM84 °FClear.2 mph70%29.89 "Hg6 mi
8:30 AM82 °FClear.5 mph74%29.89 "Hg6 mi
8:00 AM81 °FClear.5 mph84%29.89 "Hg6 mi
7:30 AM79 °FClear.5 mph89%29.86 "Hg6 mi
Weather by CustomWeather, © 2015

See weather overviewHow to use our weather pages